Wind_Speed
9 9 9 8 8 8 8 7 7 6 5 4 3 2 2 1 1 1 2 3 3 3 3 4 4 4 4 4 4 4 4 3 2 2 2 2 2 2 2 2 2 3 4
10 10 10 9 9 8 8 7 7 6 6 5 4 3 3 2 1 1 2 2 2 3 3 4 4 4 4 3 3 3 3 3 2 2 2 2 1 1 1 1 2 2 3
10 11 10 10 9 8 8 6 7 7 6 6 5 4 4 3 2 1 1 1 2 3 3 3 3 4 3 3 2 2 2 2 1 1 1 1 0 1 1 1 1 2 3
10 10 10 10 10 9 8 7 7 7 7 6 5 5 4 3 2 1 1 2 2 3 3 3 3 3 3 2 2 1 1 1 1 1 0 0 1 1 1 0 1 2 2
10 9 10 9 9 10 9 8 8 8 8 7 6 5 5 4 3 2 2 2 2 2 3 3 3 3 3 2 2 1 1 1 1 1 1 1 1 1 1 1 2 2 2
10 10 10 9 10 11 10 9 8 8 8 7 6 5 5 5 4 4 3 4 3 3 3 3 3 3 3 2 2 1 1 2 2 2 2 2 3 3 3 3 3 3 3
10 10 10 9 10 11 11 10 9 8 8 8 6 5 5 5 4 4 4 4 3 3 4 4 3 3 3 3 2 2 2 3 3 3 4 4 5 5 4 5 4 4 5
10 10 10 9 10 12 12 11 10 9 9 8 7 6 6 5 5 5 4 4 3 3 3 3 3 4 4 4 4 3 3 3 4 4 5 5 5 5 5 6 6 6 6
9 9 10 10 11 12 12 11 10 9 10 9 7 7 7 7 6 5 5 5 5 4 4 4 4 4 5 5 5 5 4 4 4 5 5 6 6 6 7 7 7 7 7
9 9 10 10 11 11 11 11 10 10 9 10 9 8 7 7 7 7 6 6 6 6 6 6 6 6 6 6 6 6 6 6 6 6 7 7 7 7 8 9 9 9 9
9 10 10 9 10 11 11 11 11 10 10 10 10 9 9 9 9 8 7 7 7 7 7 8 8 8 8 7 7 7 8 9 9 9 9 9 9 9 10 10 10 11 11
9 9 9 9 9 10 10 11 11 11 11 11 11 11 10 10 9 9 9 8 8 8 9 9 9 9 9 9 10 10 10 11 11 11 11 11 11 11 12 12 13 13 13
8 8 9 10 10 10 10 11 11 11 12 12 12 12 11 10 10 9 9 9 10 10 11 11 11 11 11 11 11 12 12 12 13 13 12 12 13 13 14 14 14 15 15
8 9 10 10 9 9 10 10 11 11 12 12 12 12 12 11 11 11 11 11 11 12 12 12 12 13 13 14 14 14 14 14 14 14 14 15 15 15 15 16 16 17 17
8 9 10 10 9 9 10 10 10 11 11 12 12 12 12 12 11 12 12 12 13 13 13 14 14 14 14 15 15 15 15 15 15 15 16 16 16 16 17 17 18 18 19
8 9 10 10 10 10 10 10 10 11 11 11 12 13 13 13 12 12 13 14 14 14 15 14 14 15 15 16 16 16 16 16 16 16 17 17 17 18 19 19 20 20 21
8 9 10 10 10 10 10 11 11 11 11 11 12 13 14 14 14 14 14 15 15 15 15 16 16 16 16 17 17 18 18 18 19 19 19 19 20 20 21 21 22 22 23
8 9 10 11 11 11 10 11 11 12 12 12 13 13 14 15 15 15 15 15 16 16 17 17 18 18 18 19 19 19 19 20 20 21 21 21 22 22 23 23 23 24 24
9 10 10 11 11 11 11 11 12 13 13 14 14 14 15 15 16 16 16 16 17 17 18 18 18 19 19 20 20 20 20 21 21 22 22 22 23 24 24 25 25 26 27
10 10 10 10 11 11 11 12 12 13 14 14 15 15 15 15 15 16 17 18 18 18 18 19 19 20 20 21 21 22 21 21 22 23 23 23 24 25 26 27 27 28 29
10 10 10 10 11 11 11 12 12 13 14 14 15 15 16 16 17 17 18 19 19 19 20 21 21 21 21 21 22 22 23 23 24 24 25 25 26 28 28 28 29 30 31
12 12 12 12 12 12 13 13 13 14 14 15 15 16 17 18 18 19 19 19 19 20 21 21 21 22 22 22 23 24 24 24 25 26 26 27 29 30 30 30 31 32 33
13 13 14 14 14 14 14 15 15 15 15 15 16 17 18 19 20 20 20 20 20 21 21 22 22 22 23 24 24 25 25 26 26 27 28 29 30 31 32 32 33 34 34
15 15 15 15 15 15 15 16 16 17 17 17 17 18 19 20 20 20 21 21 21 22 22 23 23 24 25 25 26 27 27 28 28 29 30 31 32 33 34 34 35 35 36
16 16 16 16 17 17 17 17 18 18 19 19 19 19 20 21 21 21 21 22 22 23 23 24 25 25 26 26 27 28 29 30 30 30 31 32 33 34 35 36 37 38 38
17 17 17 18 18 18 18 18 18 19 19 20 20 20 21 21 22 22 23 23 24 24 24 25 25 26 27 28 29 29 30 31 31 32 32 33 34 35 36 37 37 38 39
Wind_Direction
218 208 205 208 207 210 216 216 215 216 217 225 229 232 245 267 295 351 1 9 15 16 20 19 22 23 22 30 40 49 55 56 68 89 100 109 120 149 168 186 190 193 202
214 207 204 205 209 211 209 211 210 214 222 225 225 225 236 252 285 343 355 2 4 5 11 20 25 27 26 34 42 52 58 53 62 80 96 112 120 126 126 143 171 180 195
209 207 203 203 203 202 204 211 212 218 222 222 223 225 230 235 266 290 326 339 350 355 2 16 20 18 18 29 45 58 56 43 50 80 90 108 132 136 129 126 162 188 206
207 204 201 202 202 201 203 215 215 219 221 220 224 228 228 235 246 260 286 320 341 351 358 3 7 10 17 28 35 40 32 20 18 31 56 168 197 176 156 197 192 212 221
202 200 204 208 209 204 204 212 214 218 216 216 222 227 231 237 235 251 272 297 325 339 350 351 355 2 9 12 10 4 355 348 340 322 307 249 234 238 243 251 246 236 233
204 204 206 213 213 207 205 207 210 215 214 211 217 225 231 234 239 255 267 282 300 313 330 334 331 333 341 347 345 341 333 322 313 297 282 272 263 257 248 247 250 252 253
204 207 211 213 209 204 202 202 208 215 215 214 219 223 229 232 243 257 267 275 292 302 315 321 324 322 321 318 306 300 306 308 303 293 282 276 271 264 250 248 248 250 257
200 205 210 211 209 207 205 206 211 215 217 221 229 233 233 236 241 250 262 265 266 284 298 305 308 310 310 309 306 298 301 302 302 297 290 285 282 270 258 256 254 255 259
210 210 213 217 211 208 208 210 216 220 221 225 233 240 241 240 239 245 256 260 263 273 283 292 301 304 301 297 297 296 296 294 298 295 297 296 287 270 266 265 262 266 269
214 213 212 213 210 210 209 214 221 227 227 228 234 241 244 242 242 247 257 263 266 273 279 285 291 294 293 291 290 286 289 294 294 294 293 292 287 275 274 270 267 268 270
212 211 212 213 211 211 212 218 222 229 229 231 236 240 243 245 246 251 257 263 269 274 277 280 282 284 287 286 287 288 288 289 289 288 287 285 281 278 276 273 272 272 273
212 214 214 211 211 213 215 221 225 232 233 233 236 239 245 248 247 254 255 261 268 273 275 278 280 282 285 286 287 287 288 287 285 283 281 280 279 278 277 276 274 274 276
219 221 220 219 224 223 223 226 230 236 236 236 239 243 247 245 247 256 257 261 267 272 275 277 280 281 282 283 285 286 285 285 283 281 279 278 278 278 276 276 276 277 277
223 223 220 224 227 227 229 232 236 240 242 242 240 241 245 246 250 255 259 263 267 270 275 278 281 282 282 282 283 284 283 282 281 280 278 277 277 276 275 276 277 277 277
227 227 225 226 230 234 236 238 241 243 245 244 241 242 245 248 255 259 261 264 268 271 274 278 280 281 283 284 284 284 282 282 280 279 278 278 277 277 277 277 278 278 278
231 232 227 231 232 235 239 243 246 248 247 246 244 245 249 253 259 262 264 265 267 271 274 276 280 282 284 284 285 285 283 282 281 279 279 279 278 278 278 278 279 279 279
237 232 231 239 238 238 241 247 248 250 250 249 249 251 253 256 260 264 267 269 269 272 275 278 279 282 284 285 285 284 282 282 280 279 278 278 278 278 279 279 280 280 280
245 238 239 241 243 243 246 250 251 252 253 253 254 257 258 259 261 266 269 271 271 273 275 279 280 281 283 284 285 285 282 281 281 279 279 279 279 279 280 281 282 283 282
249 245 245 247 246 247 249 251 253 255 256 255 257 261 264 265 266 267 269 271 273 274 277 278 278 281 282 283 284 284 283 283 283 281 280 280 280 282 283 283 283 283 283
253 248 247 248 250 252 252 254 257 258 259 258 260 264 267 268 270 271 271 272 274 278 279 280 281 283 283 283 284 285 285 285 285 284 283 283 284 284 285 284 283 283 283
254 252 251 253 255 257 260 261 260 263 263 262 262 264 267 269 271 274 276 276 277 278 281 282 283 283 283 285 287 288 288 287 286 284 284 285 285 286 286 286 286 285 285
254 255 257 258 257 259 262 264 264 265 267 267 265 266 267 271 274 277 279 280 280 280 282 283 283 283 284 286 288 288 289 288 287 286 286 286 287 287 287 287 287 287 287
259 258 261 261 260 261 263 265 265 267 268 269 269 270 272 275 276 277 279 280 281 282 283 285 285 285 286 286 287 288 288 288 287 287 287 288 288 288 288 289 289 289 289
264 264 263 263 262 264 264 266 268 269 271 270 272 273 274 276 278 279 281 282 283 283 284 285 286 287 288 288 288 288 289 290 289 289 289 290 290 290 290 289 289 289 289
265 266 266 265 266 266 266 267 269 270 272 273 273 275 277 278 279 280 282 284 284 284 285 286 287 288 289 289 290 289 290 291 291 290 290 291 291 291 290 290 290 291 291
265 266 268 268 268 269 269 270 270 271 272 275 275 276 279 280 281 280 281 283 285 285 286 287 288 290 291 291 291 291 291 292 292 291 291 292 292 293 292 292 291 292 292
Height
5868 5869 5871 5872 5874 5875 5876 5877 5878 5879 5880 5881 5881 5881 5881 5881 5880 5879 5878 5877 5876 5875 5874 5872 5871 5870 5869 5867 5867 5866 5866 5866 5865 5865 5865 5865 5866 5866 5866 5866 5867 5867 5867
5866 5868 5869 5871 5872 5874 5875 5876 5877 5878 5879 5879 5880 5880 5880 5880 5879 5879 5878 5877 5876 5875 5873 5872 5871 5870 5869 5867 5867 5866 5866 5866 5866 5866 5865 5866 5867 5866 5866 5866 5867 5867 5867
5865 5866 5868 5869 5871 5872 5873 5874 5876 5877 5877 5878 5879 5879 5879 5879 5878 5878 5877 5877 5876 5874 5873 5872 5871 5870 5869 5867 5867 5866 5866 5866 5866 5866 5866 5866 5866 5866 5866 5866 5866 5867 5867
5863 5864 5866 5868 5869 5870 5872 5873 5874 5875 5876 5877 5878 5878 5878 5878 5878 5877 5877 5876 5875 5874 5873 5872 5871 5870 5869 5868 5867 5867 5866 5866 5866 5866 5866 5866 5866 5866 5866 5866 5866 5866 5866
5861 5863 5864 5866 5867 5869 5870 5872 5873 5874 5875 5876 5876 5877 5877 5877 5877 5876 5876 5875 5874 5873 5872 5871 5871 5870 5869 5868 5867 5867 5866 5866 5866 5866 5865 5865 5865 5866 5866 5865 5866 5866 5866
5860 5861 5863 5864 5866 5867 5868 5870 5871 5872 5873 5874 5875 5875 5875 5876 5876 5875 5875 5874 5873 5873 5872 5871 5870 5869 5868 5868 5867 5867 5866 5866 5866 5865 5865 5865 5865 5865 5865 5865 5865 5865 5865
5858 5859 5861 5862 5864 5865 5867 5868 5870 5871 5872 5873 5873 5874 5874 5874 5874 5874 5874 5873 5873 5872 5871 5870 5869 5869 5868 5867 5866 5866 5866 5865 5865 5864 5864 5863 5863 5863 5863 5864 5863 5863 5863
5856 5858 5859 5860 5862 5864 5865 5866 5868 5869 5870 5871 5872 5872 5872 5872 5873 5873 5872 5872 5871 5871 5870 5869 5869 5868 5867 5866 5866 5865 5865 5864 5864 5863 5863 5862 5861 5861 5862 5862 5862 5862 5862
5854 5856 5857 5859 5860 5862 5863 5865 5866 5867 5868 5869 5870 5870 5871 5871 5871 5871 5871 5871 5870 5870 5869 5869 5868 5867 5866 5865 5865 5864 5864 5863 5862 5862 5861 5860 5860 5859 5860 5860 5860 5860 5860
5853 5854 5855 5857 5858 5860 5861 5862 5864 5865 5866 5867 5868 5868 5869 5869 5869 5869 5869 5869 5869 5868 5868 5867 5866 5866 5865 5864 5863 5863 5862 5861 5861 5860 5860 5859 5858 5858 5858 5858 5858 5858 5858
5851 5852 5854 5855 5856 5858 5859 5861 5862 5863 5864 5865 5865 5866 5866 5867 5867 5867 5867 5867 5867 5866 5866 5865 5865 5864 5863 5862 5861 5861 5860 5859 5859 5858 5858 5857 5856 5856 5855 5855 5855 5855 5855
5850 5851 5852 5853 5854 5856 5857 5858 5860 5861 5861 5862 5863 5863 5864 5864 5865 5865 5865 5865 5865 5864 5864 5863 5862 5862 5861 5860 5859 5858 5857 5857 5856 5855 5855 5854 5853 5853 5853 5852 5852 5852 5851
5848 5849 5850 5851 5853 5854 5855 5856 5857 5858 5859 5859 5860 5861 5861 5861 5862 5862 5862 5862 5862 5862 5861 5860 5860 5859 5858 5857 5856 5855 5854 5853 5852 5852 5851 5851 5850 5849 5849 5849 5848 5848 5847
5846 5847 5848 5849 5850 5852 5853 5854 5855 5855 5856 5856 5857 5858 5858 5858 5859 5859 5859 5859 5859 5858 5858 5857 5856 5856 5855 5854 5853 5851 5850 5849 5848 5848 5847 5847 5846 5846 5845 5845 5844 5844 5843
5844 5845 5846 5847 5848 5849 5850 5851 5852 5852 5853 5853 5854 5855 5855 5855 5856 5856 5856 5856 5855 5855 5854 5854 5853 5852 5851 5850 5848 5847 5846 5845 5844 5843 5843 5842 5842 5841 5841 5840 5840 5839 5838
5842 5843 5844 5845 5846 5847 5848 5848 5849 5849 5850 5850 5851 5851 5852 5852 5852 5852 5852 5852 5852 5851 5850 5850 5849 5848 5847 5845 5844 5842 5841 5840 5839 5839 5838 5837 5837 5836 5836 5835 5834 5834 5833
5839 5840 5841 5842 5843 5844 5845 5845 5846 5846 5847 5847 5847 5848 5848 5848 5848 5848 5848 5848 5847 5847 5846 5845 5845 5843 5842 5841 5839 5838 5836 5835 5834 5833 5833 5832 5831 5831 5830 5829 5829 5828 5827
5837 5838 5839 5840 5840 5841 5842 5842 5842 5843 5843 5844 5844 5844 5844 5844 5844 5844 5844 5843 5843 5843 5842 5841 5840 5839 5837 5836 5834 5833 5831 5830 5829 5828 5827 5826 5826 5825 5824 5823 5822 5821 5820
5835 5836 5836 5837 5837 5838 5838 5839 5839 5839 5839 5840 5840 5840 5840 5840 5840 5840 5839 5839 5838 5838 5837 5836 5835 5834 5832 5831 5829 5828 5826 5825 5824 5822 5821 5820 5819 5818 5817 5817 5816 5814 5813
5832 5833 5833 5834 5834 5834 5835 5835 5835 5835 5836 5836 5836 5836 5836 5836 5836 5835 5835 5834 5834 5833 5832 5831 5830 5828 5827 5825 5824 5822 5821 5819 5818 5817 5815 5814 5813 5811 5810 5809 5808 5806 5805
5829 5829 5830 5830 5831 5831 5831 5831 5832 5832 5832 5832 5832 5832 5831 5831 5831 5830 5830 5829 5828 5827 5826 5825 5824 5823 5821 5820 5818 5816 5815 5813 5812 5810 5809 5807 5806 5804 5802 5801 5799 5798 5796
5825 5826 5826 5827 5827 5827 5828 5828 5828 5828 5827 5827 5827 5827 5827 5826 5826 5825 5824 5823 5822 5822 5820 5819 5818 5817 5815 5814 5812 5811 5809 5807 5805 5804 5802 5800 5798 5796 5794 5792 5790 5788 5786
5821 5822 5822 5823 5823 5823 5823 5823 5823 5823 5823 5823 5822 5822 5822 5821 5820 5820 5819 5818 5817 5816 5815 5813 5812 5811 5809 5807 5806 5804 5802 5800 5798 5796 5794 5792 5790 5788 5785 5783 5780 5778 5775
5817 5817 5818 5818 5818 5819 5819 5819 5818 5818 5818 5818 5817 5817 5816 5815 5814 5814 5813 5812 5811 5810 5808 5807 5806 5804 5802 5801 5799 5797 5795 5792 5790 5788 5786 5783 5781 5778 5776 5773 5770 5767 5765
5812 5812 5813 5813 5813 5813 5813 5813 5813 5813 5812 5812 5811 5811 5810 5809 5809 5808 5807 5806 5805 5803 5802 5801 5799 5798 5796 5794 5791 5789 5787 5784 5782 5780 5777 5775 5772 5769 5766 5763 5760 5757 5753
5807 5807 5807 5807 5808 5808 5808 5808 5807 5807 5807 5806 5806 5805 5804 5803 5803 5802 5801 5799 5798 5797 5795 5794 5792 5790 5788 5786 5783 5781 5778 5776 5773 5771 5768 5765 5762 5759 5755 5752 5749 5745 5742